Location: Bottenau
(48.5138°N, 8.0462°E)
Time: 09:52:00
(UTC+00:00)

DMSP B5D2-2 - Pass Details

Date: 18 April 2021
Orbit: 790 x 806 km, 98.3° (Epoch: 05 May)

Event Time Altitude Azimuth Distance (km) Brightness Sun altitude
Rises 18:49:39 0° 15° (NNE) 3,307 7.4 -4.9°
Reaches altitude 10° 18:52:00 10° 17° (NNE) 2,375 6.6 -5.2°
Maximum altitude 18:57:15 74° 103° (ESE) 831 4.1 -6.0°
Drops below altitude 10° 19:02:29 10° 189° (S) 2,368 6.4 -6.8°
Sets 19:04:49 0° 191° (S) 3,296 7.1 -7.2°
